Погода в Котласе

Погода в Котласе : погода сейчас, прогноз погоды и архив. Всё, что Вы хотите узнать о погоде в Котласе!

Поиск расширенной информации на нашем сайте:

Полезная информация:

Другие новости

Новости СМИ2

Главная страница сайта

Новости сайта

03.07.2017

Напоминаем, что на нашем специализированном сайте Метеоцентр.Азия вы можете получить высокодетализированные автоматические прогнозы погоды по пунктам России, СНГ и мира в авиационном формате (включающие направление и скорость ветра, видимость, явления погоды, количество и форму облачности, нижнюю и верхнюю границу облачности).

Рекомендуем:

Погода в Котласе - сегодня

Время (UTC), дата Ветер
(°,м/с) 
Видим.   Явления Облачность Т
(°С)
Тd
(°С)
f(%) Тe
(°С)
Pmin
(гПа)
dP
(гПа)
Po
(мм)
O2
(г/м3)
Тmin Tmax R s Состояние
почвы
12 15.07.19 нст () 20000 м    8/4 600 м верхняя 
[Cu hum|Ci fib]
+21.1 +12.6 58 +26  1008.6  -1.3  752  279           
15 15.07.19 нст () 20000 м    9/4 300 м кучево-дожд., средняя, верхняя 
[Cb cap|Ac trans|Ci fib]
+18.7 +12.6 68 +25  1008.5  -0.2  751  281    +21.7       
18 15.07.19 310 (СЗ) 20000 м  {ливн. осадки}  9/3 600 м средняя, верхняя 
[Sc|Ac trans|Ci fib]
+16.7 +12.7 77 +23  1008.5  751  283           
21 15.07.19 310 (СЗ) 10 км    8/0 средняя, верхняя 
[Ac trans|Ci fib]
+12.7 +11.2 91 +16  1007.4  -1.2  751  287           
00 16.07.19 320 (СЗ) 20000 м    10/0 средняя, верхняя 
[Ac trans|Ci fib]
+12.3 +11 92 +15  1007  -0.4  750  287           
03 16.07.19 310 (СЗ) 20000 м    9/0 средняя, верхняя 
[Ac trans|Ci fib]
+13.3 +11.2 87 +16  1006.8  -0.2  750  286  +11.9    0.0    влажная 
06 16.07.19 320 (СЗ) 20000 м    6/0 верхняя 
[Ci fib]
+17.6 +11.5 67 +21  1007  0.3  750  282           
09 16.07.19 330 (СЗ) 20000 м    3/3 600 м верхняя 
[Cu hum|Ci fib]
+20.9 +9.8 49 +22  1007.6  0.6  751  279           
12 16.07.19 300 (СЗ) 5{10}  20000 м    3/3 600 м верхняя 
[Cu hum|Ci fib]
+21.4 +9.3 46 +22  1008.6  1.1  752  279           
15 16.07.19 310 (СЗ) 5{10}  20000 м    3/3 600 м 
[Cu hum]
+20.7 +8 44 +21  1009.7  752  280    +22.3       
18 16.07.19 тихо ()   20000 м    4/1 1000 м верхняя 
[Sc|Ci fib]
+14.5 +11.1 80 +17  1010.8  753  286           
21 16.07.19 тихо ()   10 км    3/0 верхняя 
[Ci fib]
+8.8 +8.4 97 +9  1012.9  755  293           
00 17.07.19 тихо ()   20000 м  местами туман поземный  3/1 1000 м верхняя 
[Sc|Ci fib]
+6.8 +6.6 99 +7  1014.1  1.2  755  296           
03 17.07.19 тихо ()   20000 м    1/0 верхняя 
[Ci fib]
+12.5 +10.7 89 +14  1015.3  1.3  756  289  +6.7        сухая 
06 17.07.19 тихо ()   20000 м    3/0 верхняя 
[Ci fib]
+19.8 +11.1 57 +22  1015.4  0.2  757  282           
09 17.07.19 нст () 20000 м    8/3 600 м верхняя 
[Cu hum|Ci fib]
+21.7 +9.2 45 +22  1015.3  757  281           
12 17.07.19 320 (СЗ) 20000 м    8/3 1000 м верхняя 
[Cu hum|Ci fib]
+23 +7.6 37 +23  1015  -0.3  756  280           
15 17.07.19 нст () 20000 м    8/3 1000 м верхняя 
[Sc|Ci fib]
+22.2 +8.1 40 +22  1014.8  0.2  756  280    +23.3       
18 17.07.19 тихо ()   6000 м  дымка  6/6 1000 м верхняя 
[Sc|Ci fib]
+14.7 +14.3 97 +22  1015  756  286           
21 17.07.19 тихо ()   6000 м  дымка  4/3 1000 м верхняя 
[Sc|Ci fib]
+9.2 +9 99 +9  1015.4  0.3  756  293           
00 18.07.19 тихо ()   6000 м  местами туман поземный  4/3 600 м средняя, верхняя 
[Sc|Ac trans|Ci fib]
+7.9 +7.3 96 +8  1015.4  756  295           
03 18.07.19 тихо ()   20000 м    8/1 600 м верхняя 
[Sc|Ci fib]
+14.6 +9.3 70 +15  1015.1  -0.2  756  288  +7.8        сухая 
06 18.07.19 050 (СВ) 20000 м    3/0 средняя, верхняя 
[Ac trans|Ci fib]
+20.3 +9.9 51 +21  1014.9  -0.1  756  282           
09 18.07.19 030 (СВ) 20000 м    3/1 1000 м средняя 
[Sc|Ac trans]
+21.7 +9.7 46 +22  1014  -0.8  756  280           
12 18.07.19 050 (СВ) 20000 м    3/0 верхняя 
[Ci fib]
+22.5 +8.9 42 +23  1012.7  -1.3  755  279           
Время (UTC), дата Ветер
(°,м/с) 
Видим.   Явления Облачность Т
(°С)
Тd
(°С)
f(%) Тe
(°С)
Pmin
(гПа)
dP
(гПа)
Po
(мм)
O2
(г/м3)
Тmin Tmax R s Состояние
почвы

Для получения пояснительной информации подведите курсор к названию столбца.

ПОГОДА в Котласе - архив

Всё, что Вы хотите узнать о погоде в Котласе - удобно и подробно!

Выберите нужную дату (начиная с 1 января 2018* года) и нажмите кнопку "Найти".
Будут отображены архивные сводки погоды по пункту Котлас, начиная с указанной даты.


Отображать данные в формате CSV (для использования в таблицах Excel)


Внимание! Наш архив погоды предназначен исключительно для личного некоммерческого использования в познавательных целях. Если Вам необходимы официальные справки о состоянии погоды (для производственных, юридических, коммерческих и т.п. целей), обращайтесь в органы Росгидромета.

*Примечание: данная дата относится к архиву по метеостанциям СССР (Россия, СНГ, Балтия).
Архив по метеостанциям Зарубежной Европы и Азии (кроме Китая) хранится 10 дней, по другим регионам земного шара (Китай, Африка, Америка, Австралия, Океания) - 1 день.

Котлас - район местоположения метеостанции


Название, широта, долгота, высота метеостанции:
Котлас 61.2°ш. 46.7°д. 56 м над ур. моря [Российская Федерация]

Дополнительная информация

В oтличие oт бoльшинства пoгoдных сайтoв мы публикуем пoдрoбную метеoинфoрмацию в детальнoм прoфессиoнальнoм фoрмате.

Характеристики температуры и влажнoсти вoздуха измеряются на высoте 2 м в тени вдали oт зданий и деревьев.
Скoрoсть ветра измеряется на высoте 10 м (на урoвне рoста челoвека скoрoсть ветра ниже в 1.5-2 раза). Если метеoстанция нахoдится в гoрoде или в лесу, тo скoрoсть ветра занижена на 2-4 м/с пo сравнению с oткрытым местoм. Скoрoсть ветра над акватoриями крупных рек и oзёр, а также на вершинах хoлмoв на 2-5 м/с выше, чем в oбычных услoвиях.
Атмoсфернoе давление в разных тoчках местнoсти мoжет значительнo oтличаться oт давления на метеoстанции, в зависимoсти oт услoвий рельефа (при пoдъёме на 10 м давление пoнижается примернo на 1 мм рт.ст.).